Lid_Strength_Index
-0 1 5 6 10 12 14 12 10 10 10 8 7 7 8 8 10 12 3 0 0 -0 -0 -1 -1 -2 -2 -2 -2 -2 -2 -2 -2 -2 -2 -2 -2 -2 -2 -2 -2 -2 -2 -2 -2 -2 -2 -2 -2
1 2 7 10 13 15 14 11 11 10 8 6 7 7 8 10 5 5 3 1 -0 -0 -0 -0 -1 -2 -2 -2 -2 -2 -2 -2 -3 -2 -2 -2 -2 -2 -2 -2 -2 -2 -2 -2 -2 -2 -2 -2 -2
2 5 9 12 15 15 13 11 10 8 7 8 8 6 8 9 5 4 2 0 -0 -0 -0 -0 -1 -2 -2 -2 -2 -2 -2 -2 -3 -2 -2 -2 -2 -2 -2 -2 -2 -2 -2 -2 -2 -2 -2 -2 -2
4 6 9 13 15 13 12 10 8 8 7 7 7 9 6 4 4 2 0 0 0 0 -0 -0 -1 -2 -2 -2 -2 -2 -2 -3 -2 -3 -2 -2 -2 -2 -2 -2 -2 -2 -2 -2 -2 -2 -2 -2 -2
5 8 12 14 15 13 12 10 9 9 9 8 7 10 9 4 2 1 1 0 1 0 -0 -0 -1 -1 -2 -2 -2 -2 -2 -2 -2 -2 -2 -2 -2 -3 -3 -2 -2 -2 -2 -2 -2 -2 -1 -1 -1
7 8 13 15 13 12 11 10 10 9 8 8 8 9 8 4 3 2 1 1 0 0 -0 -0 0 -0 -1 -1 -2 -2 -2 -2 -2 -3 -2 -2 -3 -3 -3 -3 -2 -2 -2 -2 -2 -1 -1 -1 -1
8 10 14 15 13 12 11 9 10 10 9 9 5 9 8 5 3 3 2 1 0 0 0 0 0 0 0 -0 -1 -2 -2 -2 -2 -2 -2 -2 -3 -2 -2 -2 -2 -2 -2 -2 -2 -1 -1 -1 -1
7 9 14 13 13 13 11 10 10 10 9 7 5 9 9 4 3 4 2 2 1 0 0 0 0 0 0 0 0 -0 -1 -1 -2 -2 -1 -1 -1 -1 -1 -1 -2 -2 -2 -2 -1 -1 -1 -1 -1
7 11 14 13 12 11 10 11 10 9 9 8 6 7 5 3 3 4 5 3 2 1 0 0 0 0 0 0 0 1 1 -0 -0 -1 -0 1 1 0 0 0 -1 -2 -2 -2 -2 -1 -2 -2 -1
8 12 11 9 9 10 10 11 10 10 10 9 7 5 4 3 4 5 5 4 3 2 1 0 0 0 0 -0 0 0 0 0 0 0 0 1 1 1 1 2 0 -1 -1 -1 -2 -2 -2 -1 2
9 11 9 8 8 7 8 10 8 10 11 10 8 6 5 5 5 5 5 5 3 2 2 1 0 0 0 0 0 1 0 1 1 1 1 1 1 2 2 2 1 1 1 0 -0 0 1 1 2
11 8 8 7 7 7 8 8 9 9 9 7 7 4 4 5 5 4 4 5 5 3 2 1 1 1 1 1 1 1 0 1 2 1 1 2 2 2 2 2 2 2 1 1 2 1 1 2 2
10 9 7 7 7 8 7 8 8 8 7 7 7 4 5 4 4 3 3 4 4 4 2 2 1 1 1 1 1 1 0 1 1 2 2 2 2 2 2 2 2 2 2 1 2 2 2 2 2
8 8 8 8 8 8 8 8 8 8 8 8 7 6 5 4 4 4 4 3 3 3 3 2 1 0 0 1 1 1 1 1 1 2 2 2 1 1 3 2 1 2 2 1 2 2 3 3 2
8 10 9 9 8 8 8 10 10 7 7 8 8 8 7 6 4 4 3 3 2 2 2 3 2 1 1 1 1 1 1 1 1 1 2 2 1 2 3 2 1 1 2 2 2 2 3 3 3
11 10 14 10 8 8 8 14 10 8 8 8 8 9 8 8 7 6 3 2 2 2 2 2 2 2 1 1 1 1 1 1 2 1 2 2 2 1 1 1 1 1 2 2 2 2 2 3 3
12 16 14 12 8 9 10 13 9 8 9 9 9 9 9 8 7 7 6 5 2 2 2 3 3 2 2 0 0 1 1 1 1 2 2 2 2 2 1 1 1 2 2 2 2 3 2 3 3
15 16 14 14 11 10 11 13 10 8 9 10 9 9 9 8 7 6 6 6 5 3 1 2 3 2 3 2 0 1 1 2 1 1 2 2 2 2 3 2 1 2 2 3 3 2 3 3 4
12 14 14 12 9 12 12 12 11 10 10 10 9 10 9 9 7 7 7 6 6 6 4 2 3 2 2 3 2 1 2 1 1 1 1 2 2 2 2 3 3 3 2 2 3 3 3 4 5
13 15 15 11 10 11 12 13 12 11 11 10 10 10 9 9 9 8 8 7 7 6 6 4 2 2 2 2 2 1 1 1 1 1 1 2 2 2 2 2 3 4 4 4 3 3 6 4 5
13 14 15 14 11 11 14 15 14 12 12 10 10 9 9 9 9 8 8 8 8 8 7 6 3 2 2 1 2 3 3 3 3 2 2 1 1 2 2 2 2 3 4 3 4 5 5 4 7
14 11 11 13 14 18 14 20 16 14 12 12 11 11 11 11 10 9 8 8 8 8 7 6 5 2 2 2 2 3 3 3 2 2 2 1 1 1 2 2 2 2 3 4 3 3 4 5 5
12 10 11 12 14 16 17 18 18 15 15 12 11 11 11 10 10 10 9 8 9 9 9 7 6 4 2 2 2 2 3 2 2 3 3 2 2 2 1 1 2 2 2 3 3 4 4 4 5
9 11 12 12 14 19 16 17 19 17 15 14 12 12 11 9 10 10 10 9 10 10 10 9 9 7 4 2 3 3 3 3 3 3 3 2 2 2 2 2 2 1 2 2 2 3 4 5 5
10 13 19 20 20 20 17 17 16 14 12 12 11 11 10 9 11 10 10 10 9 9 9 9 9 9 9 8 4 2 3 3 3 3 3 3 3 3 2 2 2 2 2 2 2 2 3 4 5
12 13 18 23 21 20 16 19 16 12 11 10 10 10 10 10 11 11 10 9 9 9 9 9 9 9 8 9 9 7 3 1 2 2 2 2 2 2 2 2 2 2 2 2 2 2 2 2 3
13 15 11 16 18 20 18 17 13 11 11 11 11 10 11 11 10 10 9 9 9 10 10 9 9 9 9 9 9 9 8 7 3 1 1 2 1 2 2 2 2 2 2 2 2 2 2 2 2
11 10 16 15 21 22 19 18 17 14 12 11 11 10 11 11 9 9 9 10 10 10 10 10 10 10 9 10 10 10 9 9 8 7 4 1 1 1 2 2 2 2 2 2 2 2 2 2 2
13 14 13 13 16 19 22 19 14 13 12 12 12 10 10 10 9 10 11 11 11 11 11 11 11 11 11 11 11 10 10 9 9 8 6 5 3 1 1 1 1 1 2 2 2 2 2 2 3
9 12 12 17 18 16 17 17 12 12 12 11 11 11 10 9 10 11 11 11 11 12 11 11 11 12 11 11 11 10 9 9 9 8 7 6 5 3 1 1 1 2 2 2 2 2 2 2 2